Weather History for Bridgeport, CT

Change the Weather History Date:

Monday, February 18, 2013

  Actual Average Record
Temperature  
Mean Temperature 25 °F 33 °F  
Max Temperature 33 °F 40 °F 60 °F (1981)
Min Temperature 17 °F 26 °F 0 °F (1979)
Degree Days  
Heating Degree Days 40 32  
Month to date heating degree days 642 601  
Since 1 July heating degree days 3328 3577  
Cooling Degree Days 0 0  
Month to date cooling degree days 0 0  
Year to date cooling degree days 0 0  
Moisture  
Dew Point 7 °F    
Average Humidity 43    
Maximum Humidity 54    
Minimum Humidity 32    
Precipitation  
Precipitation 0.00 in 0.10 in 1.95 in (1960)
Month to date precipitation 3.20 1.69  
Year to date precipitation 5.20 4.79  
Snow  
Snow 0.00 in 0.30 in 4.00 in (1952)
Month to date snowfall 30.4 5.2  
Since 1 July snowfall 51.3 18.7  
Snow Depth 13.00 in    
Sea Level Pressure  
Sea Level Pressure 30.13 in    
Wind  
Wind Speed 12 mph (WNW)    
Max Wind Speed 24 mph    
Max Gust Speed 32 mph    
Visibility 10 miles    
Events      
T = Trace of Precipitation, MM = Missing Value Source: NWS Daily Summary

Daily Weather History Graph

Daily Weather History Graph

Search for Another Location

Airport:

Trip Planner

Search our weather history database for the weather conditions in past years. The results will help you decide how hot, cold, wet, or windy it might be!

Date:

Astronomy

Feb. 18, 2013 Rise Set
Actual Time 6:42 AM EST 5:30 PM EST
Civil Twilight 6:14 AM EST 5:58 PM EST
Nautical Twilight 5:42 AM EST 6:30 PM EST
Astronomical Twilight 5:10 AM EST 7:02 PM EST
Moon 11:12 AM EST (2/18) 1:21 AM EST (2/18)
Length of Visible Light 11h 44m
Length of Day
10h 47m
First Quarter, 58% of the Moon is Illuminated
Feb 18
First Quarter
Feb 25
Full
Mar 4
Last Quarter
Mar 11
New
Mar 19
First Quarter

Hourly Weather History & Observations

Time (EST) Temp. Windchill Dew Point Humidity Pressure Visibility Wind Dir Wind Speed Gust Speed Precip Events Conditions
12:52 AM 17.1 °F 2.5 °F 3.0 °F 54% 29.94 in 10.0 mi West 15.0 mph 25.3 mph N/A   Clear
1:52 AM 17.1 °F 2.5 °F 3.0 °F 54% 29.95 in 10.0 mi WNW 15.0 mph 24.2 mph N/A   Clear
2:52 AM 17.1 °F 2.5 °F 1.9 °F 52% 29.97 in 10.0 mi WNW 15.0 mph 25.3 mph N/A   Clear
3:52 AM 17.1 °F 5.0 °F 1.9 °F 52% 29.99 in 10.0 mi West 10.4 mph 21.9 mph N/A   Clear
4:52 AM 17.1 °F 2.5 °F 1.9 °F 52% 30.03 in 10.0 mi WNW 15.0 mph 21.9 mph N/A   Clear
5:52 AM 17.1 °F 1.0 °F 1.9 °F 52% 30.06 in 10.0 mi WNW 18.4 mph 23.0 mph N/A   Clear
6:52 AM 17.1 °F 3.0 °F 3.0 °F 54% 30.09 in 10.0 mi WNW 13.8 mph 20.7 mph N/A   Clear
7:52 AM 18.0 °F 4.2 °F 3.0 °F 52% 30.14 in 10.0 mi WNW 13.8 mph 23.0 mph N/A   Clear
8:52 AM 21.0 °F 5.7 °F 3.0 °F 46% 30.15 in 10.0 mi WNW 19.6 mph 26.5 mph N/A   Clear
9:52 AM 21.9 °F 6.5 °F 5.0 °F 48% 30.16 in 10.0 mi WNW 20.7 mph 26.5 mph N/A   Clear
10:52 AM 25.0 °F 14.2 °F 7.0 °F 46% 30.19 in 10.0 mi West 11.5 mph - N/A   Clear
11:52 AM 27.0 °F 17.3 °F 7.0 °F 43% 30.19 in 10.0 mi West 10.4 mph 19.6 mph N/A   Clear
12:52 PM 30.0 °F 20.0 °F 7.0 °F 38% 30.17 in 10.0 mi WNW 12.7 mph 19.6 mph N/A   Clear
1:52 PM 30.9 °F 20.7 °F 9.0 °F 40% 30.15 in 10.0 mi WNW 13.8 mph - N/A   Clear
2:52 PM 33.1 °F 23.9 °F 7.0 °F 34% 30.15 in 10.0 mi WNW 12.7 mph 19.6 mph N/A   Clear
3:52 PM 33.1 °F 23.0 °F 10.0 °F 38% 30.15 in 10.0 mi WNW 15.0 mph - N/A   Clear
4:52 PM 32.0 °F 24.2 °F 9.0 °F 38% 30.16 in 10.0 mi West 9.2 mph - N/A   Clear
5:52 PM 32.0 °F 25.6 °F 9.0 °F 38% 30.18 in 10.0 mi West 6.9 mph - N/A   Clear
6:52 PM 30.0 °F 23.2 °F 10.9 °F 45% 30.19 in 10.0 mi West 6.9 mph - N/A   Clear
7:52 PM 28.9 °F 23.9 °F 12.0 °F 49% 30.20 in 10.0 mi West 4.6 mph - N/A   Clear
8:52 PM 28.9 °F 23.9 °F 12.0 °F 49% 30.21 in 10.0 mi West 4.6 mph - N/A   Clear
9:52 PM 28.9 °F 23.9 °F 10.9 °F 47% 30.21 in 10.0 mi West 4.6 mph - N/A   Clear
10:52 PM 28.9 °F 23.9 °F 12.9 °F 51% 30.21 in 10.0 mi WSW 4.6 mph - N/A   Clear
11:52 PM 30.0 °F 26.5 °F 17.1 °F 59% 30.22 in 10.0 mi WSW 3.5 mph - N/A   Clear